Location: Bouchavesnes-Bergen
(49.9859°N, 2.9203°E)
Time: 10:19:09
(UTC+00:00)

Cosmos 2297 Rocket - Pass Details

Date: 09 March 2021
Orbit: 839 x 844 km, 71.0° (Epoch: 12 April)

Event Time Altitude Azimuth Distance (km) Brightness Sun altitude
Rises 04:35:15 0° 174° (S) 3,378 5.3 -16.7°
Reaches altitude 10° 04:37:56 10° 164° (SSE) 2,449 4.6 -16.3°
Maximum altitude 04:42:45 30° 105° (ESE) 1,465 4.1 -15.5°
Drops below altitude 10° 04:47:35 10° 46° (NE) 2,466 5.5 -14.8°
Sets 04:50:17 0° 36° (NE) 3,406 6.1 -14.4°
